RH
39 38 36 37 38 35 32 31 30 27 26 26 27 27 27 27 27 26 27 27 28 29 30 33 34 34 35 35 34 31 31 32 33 33 33 32 31 30 29 26 20 15 13
38 36 37 35 33 33 32 30 28 26 25 26 26 26 26 25 26 27 30 31 31 30 31 31 30 31 33 34 34 35 34 33 31 29 30 32 34 36 37 34 32 27 24
38 35 36 33 33 32 30 28 28 27 26 25 25 26 27 27 26 25 23 22 22 22 23 24 25 27 28 30 32 34 38 40 39 38 37 35 36 34 33 34 35 35 33
35 34 35 32 30 29 28 28 28 27 27 26 23 21 20 18 17 16 15 15 14 14 15 17 18 20 24 26 29 33 33 34 34 39 41 44 43 43 39 36 35 33 32
35 36 35 34 31 28 29 28 26 26 22 18 16 14 13 12 12 11 9 8 8 8 9 10 10 11 12 16 20 23 29 34 32 33 35 36 38 42 49 51 49 42 39
35 36 34 35 34 30 28 27 25 21 15 13 12 12 11 10 8 7 7 8 8 8 8 8 8 8 8 8 10 13 16 19 22 24 27 33 34 36 36 36 38 40 42
37 36 35 38 35 30 25 23 19 15 13 12 11 10 8 7 7 8 8 8 8 7 7 7 8 8 9 9 9 9 9 10 12 16 20 24 27 28 27 27 35 39 39
36 35 36 36 33 28 23 18 15 13 11 10 9 8 7 7 8 8 8 8 8 7 7 8 8 8 9 9 9 9 10 10 10 11 12 13 17 24 24 29 38 37 41
39 36 37 34 31 25 20 16 13 12 10 10 8 7 7 8 9 8 8 8 8 8 8 7 7 7 7 7 7 7 8 9 9 10 10 10 11 13 19 26 41 45 51
43 38 37 33 29 22 17 14 12 11 10 9 8 8 8 9 9 10 9 9 9 8 8 8 7 7 7 7 8 8 8 8 9 10 11 12 11 14 16 21 34 41 51
46 40 37 31 25 20 16 13 12 11 10 10 9 9 10 10 10 10 10 10 10 9 8 7 7 7 7 8 9 9 10 11 11 11 11 12 13 14 18 23 33 41 45
48 40 35 30 24 20 16 13 12 11 11 10 10 12 11 11 11 11 11 11 10 9 8 7 7 7 8 9 9 10 11 12 13 13 13 13 13 16 17 24 36 38 38
50 44 40 33 26 20 15 13 12 11 11 11 11 11 10 11 12 11 11 10 9 8 8 7 8 9 9 10 11 12 14 15 15 16 17 17 18 18 20 21 24 27 28
50 47 45 38 28 21 15 14 12 12 12 11 11 11 11 11 11 10 10 10 9 9 8 8 8 9 10 11 12 14 16 18 20 21 21 21 21 22 22 23 23 24 23
52 49 46 39 28 20 16 14 13 13 13 13 12 12 11 11 11 12 12 11 10 9 9 9 8 8 8 10 13 15 17 20 22 23 24 26 27 26 27 26 26 25 25
51 49 44 37 28 22 18 15 14 14 14 13 12 12 12 12 12 12 12 11 10 10 10 9 8 6 6 8 12 15 18 20 23 25 26 28 30 31 33 31 29 29 30
48 45 42 35 30 26 19 16 15 15 15 14 13 12 12 13 12 12 12 11 11 11 10 9 9 7 6 7 12 14 16 19 22 25 28 30 32 35 35 33 33 31 30
46 45 38 33 32 25 18 17 17 16 15 15 13 13 14 13 13 12 12 12 12 11 10 10 9 8 8 7 10 14 16 17 22 24 30 33 36 36 36 35 32 31 28
45 42 35 33 32 24 20 19 17 17 15 14 14 13 14 14 13 13 13 14 13 12 11 11 11 10 9 8 9 13 15 19 21 26 30 33 35 36 38 39 39 38 33
44 39 34 32 30 25 20 18 17 17 15 15 14 15 15 13 13 13 15 14 13 13 12 12 11 12 12 10 9 13 16 21 24 26 28 30 31 32 34 36 38 37 37
39 35 32 29 26 23 21 20 19 18 16 15 16 16 14 13 13 15 16 13 14 14 14 14 14 13 13 11 10 14 17 21 25 27 28 29 29 30 32 30 29 27 28
35 33 32 28 23 22 22 21 19 17 16 16 16 15 14 14 15 17 15 14 15 15 15 15 17 16 15 15 13 12 14 21 25 25 29 30 30 30 28 28 28 28 27
31 30 28 23 21 21 22 20 19 17 17 16 16 16 14 16 18 16 15 16 16 16 16 17 18 19 19 18 18 18 16 17 15 20 27 29 30 30 29 27 24 24 26
28 26 22 20 20 20 20 19 18 18 16 17 17 15 18 19 16 16 17 17 17 17 17 18 18 21 22 21 20 22 21 21 22 19 20 25 27 27 28 27 24 22 24
23 20 19 18 19 19 20 19 18 17 18 17 17 20 19 17 18 18 17 16 17 17 18 18 19 20 22 23 23 24 24 24 24 26 25 18 17 19 22 21 18 20 21
19 18 18 19 18 19 19 18 19 19 18 20 19 17 17 18 16 16 16 16 16 16 17 17 18 19 21 22 22 23 25 27 30 31 30 27 26 18 15 15 16 19 20